Cleveland Burke, OH

12:11 PM EDT on October 22, 2017 (GMT -0400)
Burke Lakefront

Weather History for KBKL - September, 2011

Change the Weather History Date:

Sunday, September 18, 2011

  Actual Average Record
Temperature  
Mean Temperature 62 °F -  
Max Temperature 73 °F 70 °F 82 °F (2002)
Min Temperature 53 °F 57 °F 53 °F (1999)
Degree Days  
Heating Degree Days 2    
Growing Degree Days 12 (Base 50)    
Moisture  
Dew Point 49 °F    
Average Humidity 63    
Maximum Humidity 74    
Minimum Humidity 49    
Precipitation  
Precipitation 0.00 in - - ()
Sea Level Pressure  
Sea Level Pressure 30.27 in    
Wind  
Wind Speed 8 mph (SE)    
Max Wind Speed 12 mph    
Max Gust Speed 17 mph    
Visibility 10 miles    
Events      
Averages and records for this station are not official NWS values.
T = Trace of Precipitation, MM = Missing Value Source: NWS Daily Summary

Daily Weather History Graph

Daily Weather History Graph

Search for Another Location

Airport or City:

Trip Planner

Search our weather history database for the weather conditions in past years. The results will help you decide how hot, cold, wet, or windy it might be!

Date:

Astronomy

Sep. 18, 2011 Rise Set
Actual Time 7:09 AM EDT 7:31 PM EDT
Civil Twilight 6:42 AM EDT 7:59 PM EDT
Nautical Twilight 6:09 AM EDT 8:31 PM EDT
Astronomical Twilight 5:35 AM EDT 9:04 PM EDT
Moon 10:40 PM EDT (9/18) 1:11 PM EDT (9/18)
Length of Visible Light 13h 16m
Length of Day
12h 21m
Waning Gibbous, 68% of the Moon is Illuminated
Sep 18
Waning Gibbous
Sep 20
Last Quarter
Sep 27
New
Oct 3
First Quarter
Oct 11
Full

Hourly Weather History & Observations

Time (EDT) Temp. Dew Point Humidity Pressure Visibility Wind Dir Wind Speed Gust Speed Precip Events Conditions
12:53 AM 57.9 °F 48.0 °F 70% 30.31 in 10.0 mi ESE 6.9 mph - N/A   Clear
1:53 AM 57.0 °F 46.0 °F 67% 30.30 in 10.0 mi SE 6.9 mph - N/A   Clear
2:53 AM 55.9 °F 46.0 °F 69% 30.30 in 10.0 mi SE 6.9 mph - N/A   Clear
3:53 AM 55.0 °F 45.0 °F 69% 30.31 in 10.0 mi SSE 5.8 mph - N/A   Clear
4:53 AM 55.4 °F 44.6 °F 67% 30.31 in 10.0 mi SE 9.2 mph - N/A   Clear
5:53 AM 53.1 °F 45.0 °F 74% 30.32 in 10.0 mi SSE 8.1 mph - N/A   Clear
6:53 AM 53.1 °F 45.0 °F 74% 30.32 in 10.0 mi SE 9.2 mph - N/A   Clear
7:53 AM 53.1 °F 45.0 °F 74% 30.35 in 10.0 mi SSE 9.2 mph - N/A   Clear
8:53 AM 55.9 °F 46.0 °F 69% 30.34 in 10.0 mi SSE 10.4 mph - N/A   Clear
9:53 AM 59.0 °F 48.0 °F 67% 30.33 in 10.0 mi SE 11.5 mph - N/A   Clear
10:53 AM 63.0 °F 50.0 °F 63% 30.32 in 10.0 mi SSE 8.1 mph - N/A   Clear
11:53 AM 66.0 °F 51.1 °F 59% 30.31 in 10.0 mi SSE 8.1 mph - N/A   Clear
12:53 PM 68.0 °F 52.0 °F 56% 30.30 in 10.0 mi SSE 8.1 mph - N/A   Clear
1:53 PM 70.0 °F 54.0 °F 57% 30.28 in 10.0 mi SE 6.9 mph - N/A   Mostly Cloudy
2:53 PM 71.6 °F 53.6 °F 53% 30.25 in 10.0 mi Variable 6.9 mph 17.3 mph N/A   Clear
3:53 PM 71.1 °F 53.1 °F 53% 30.23 in 10.0 mi SE 6.9 mph - N/A   Mostly Cloudy
4:53 PM 72.0 °F 52.0 °F 49% 30.22 in 10.0 mi SSE 9.2 mph - N/A   Overcast
5:53 PM 71.1 °F 53.1 °F 53% 30.20 in 10.0 mi ESE 10.4 mph - N/A   Mostly Cloudy
6:53 PM 69.1 °F 52.0 °F 54% 30.20 in 10.0 mi ESE 8.1 mph - N/A   Clear
7:53 PM 66.9 °F 52.0 °F 59% 30.19 in 10.0 mi ESE 5.8 mph - N/A   Clear
8:53 PM 66.0 °F 52.0 °F 60% 30.20 in 10.0 mi ESE 8.1 mph - N/A   Clear
9:53 PM 64.9 °F 51.1 °F 61% 30.20 in 10.0 mi SE 9.2 mph - N/A   Clear
10:53 PM 62.6 °F 51.8 °F 68% 30.20 in 10.0 mi SE 9.2 mph - N/A   Clear
11:53 PM 63.0 °F 51.1 °F 65% 30.18 in 10.0 mi SE 9.2 mph - N/A   Clear